Year,Month,Day,Hour,Minute,Value (Times are PST for windgust in km/hr)
2016,08,18,00,02,3.20
2016,08,18,00,03,3.20
2016,08,18,00,04,3.20
2016,08,18,00,05,4.80
2016,08,18,00,06,1.60
2016,08,18,00,07,3.20
2016,08,18,00,09,3.20
2016,08,18,00,10,4.80
2016,08,18,00,11,1.60
2016,08,18,00,12,1.60
2016,08,18,00,13,3.20
2016,08,18,00,14,3.20
2016,08,18,00,15,1.60
2016,08,18,00,16,4.80
2016,08,18,00,17,1.60
2016,08,18,00,19,1.60
2016,08,18,00,20,1.60
2016,08,18,00,21,1.60
2016,08,18,00,22,1.60
2016,08,18,00,23,1.60
2016,08,18,00,24,3.20
2016,08,18,00,25,1.60
2016,08,18,00,26,1.60
2016,08,18,00,27,1.60
2016,08,18,00,28,3.20
2016,08,18,00,29,3.20
2016,08,18,00,30,1.60
2016,08,18,00,33,1.60
2016,08,18,00,34,1.60
2016,08,18,00,35,3.20
2016,08,18,00,40,1.60
2016,08,18,00,43,1.60
2016,08,18,00,44,1.60
2016,08,18,00,45,1.60
2016,08,18,00,46,1.60
2016,08,18,00,49,8.10
2016,08,18,00,50,4.80
2016,08,18,00,51,6.40
2016,08,18,00,52,6.40
2016,08,18,00,53,4.80
2016,08,18,00,54,4.80
2016,08,18,00,55,4.80
2016,08,18,00,56,1.60
2016,08,18,00,57,3.20
2016,08,18,00,58,4.80
2016,08,18,00,59,3.20
2016,08,18,01,00,1.60
2016,08,18,01,01,1.60
2016,08,18,01,05,1.60
2016,08,18,01,19,1.60
2016,08,18,02,13,1.60
2016,08,18,02,37,1.60
2016,08,18,02,38,1.60
2016,08,18,02,40,1.60
2016,08,18,02,41,3.20
2016,08,18,02,42,1.60
2016,08,18,02,43,1.60
2016,08,18,02,44,1.60
2016,08,18,02,45,3.20
2016,08,18,02,47,1.60
2016,08,18,02,48,1.60
2016,08,18,02,49,3.20
2016,08,18,02,50,1.60
2016,08,18,02,52,1.60
2016,08,18,03,24,1.60
2016,08,18,03,25,1.60
2016,08,18,03,57,1.60
2016,08,18,03,58,1.60
2016,08,18,04,57,1.60
2016,08,18,06,58,1.60
2016,08,18,06,59,1.60
2016,08,18,07,00,1.60
2016,08,18,07,11,1.60
2016,08,18,07,29,1.60
2016,08,18,07,33,1.60
2016,08,18,07,34,1.60
2016,08,18,07,35,1.60
2016,08,18,07,36,1.60
2016,08,18,07,38,1.60
2016,08,18,07,41,1.60
2016,08,18,07,42,1.60
2016,08,18,07,53,1.60
2016,08,18,07,54,1.60
2016,08,18,07,55,1.60
2016,08,18,07,56,1.60
2016,08,18,07,57,1.60
2016,08,18,07,58,1.60
2016,08,18,07,59,1.60
2016,08,18,08,07,1.60
2016,08,18,08,08,1.60
2016,08,18,08,11,3.20
2016,08,18,08,12,3.20
2016,08,18,08,13,3.20
2016,08,18,08,14,1.60
2016,08,18,08,18,1.60
2016,08,18,08,21,1.60
2016,08,18,08,22,1.60
2016,08,18,08,28,1.60
2016,08,18,08,29,3.20
2016,08,18,08,30,3.20
2016,08,18,08,31,3.20
2016,08,18,08,33,1.60
2016,08,18,08,34,1.60
2016,08,18,08,38,1.60
2016,08,18,08,39,1.60
2016,08,18,08,40,1.60
2016,08,18,08,41,1.60
2016,08,18,08,42,1.60
2016,08,18,08,43,1.60
2016,08,18,08,44,1.60
2016,08,18,08,45,1.60
2016,08,18,08,46,3.20
2016,08,18,08,47,1.60
2016,08,18,08,50,1.60
2016,08,18,08,51,1.60
2016,08,18,08,52,1.60
2016,08,18,08,54,1.60
2016,08,18,08,55,3.20
2016,08,18,08,57,1.60
2016,08,18,08,58,3.20
2016,08,18,09,00,1.60
2016,08,18,09,01,1.60
2016,08,18,09,02,3.20
2016,08,18,09,03,1.60
2016,08,18,09,04,1.60
2016,08,18,09,05,1.60
2016,08,18,09,06,1.60
2016,08,18,09,07,1.60
2016,08,18,09,08,1.60
2016,08,18,09,09,1.60
2016,08,18,09,10,1.60
2016,08,18,09,12,3.20
2016,08,18,09,13,4.80
2016,08,18,09,14,3.20
2016,08,18,09,15,4.80
2016,08,18,09,16,4.80
2016,08,18,09,17,1.60
2016,08,18,09,18,3.20
2016,08,18,09,19,1.60
2016,08,18,09,20,1.60
2016,08,18,09,21,1.60
2016,08,18,09,22,1.60
2016,08,18,09,23,3.20
2016,08,18,09,24,1.60
2016,08,18,09,25,1.60
2016,08,18,09,26,3.20
2016,08,18,09,27,4.80
2016,08,18,09,28,6.40
2016,08,18,09,29,8.10
2016,08,18,09,30,6.40
2016,08,18,09,31,6.40
2016,08,18,09,32,8.10
2016,08,18,09,33,6.40
2016,08,18,09,34,6.40
2016,08,18,09,35,8.10
2016,08,18,09,36,8.10
2016,08,18,09,37,4.80
2016,08,18,09,38,6.40
2016,08,18,09,39,9.60
2016,08,18,09,40,6.40
2016,08,18,09,41,6.40
2016,08,18,09,42,8.10
2016,08,18,09,43,6.40
2016,08,18,09,44,8.10
2016,08,18,09,45,8.10
2016,08,18,09,46,6.40
2016,08,18,09,47,8.10
2016,08,18,09,48,4.80
2016,08,18,09,49,8.10
2016,08,18,09,50,11.30
2016,08,18,09,51,9.60
2016,08,18,09,52,9.60
2016,08,18,09,53,8.10
2016,08,18,09,54,9.60
2016,08,18,09,55,9.60
2016,08,18,09,56,11.30
2016,08,18,09,57,12.90
2016,08,18,09,58,14.50
2016,08,18,09,59,14.50
2016,08,18,10,00,9.60
2016,08,18,10,01,9.60
2016,08,18,10,02,16.10
2016,08,18,10,03,9.60
2016,08,18,10,04,8.10
2016,08,18,10,05,11.30
2016,08,18,10,06,9.60
2016,08,18,10,07,12.90
2016,08,18,10,08,14.50
2016,08,18,10,09,9.60
2016,08,18,10,10,8.10
2016,08,18,10,11,4.80
2016,08,18,10,12,3.20
2016,08,18,10,13,8.10
2016,08,18,10,14,9.60
2016,08,18,10,15,9.60
2016,08,18,10,16,11.30
2016,08,18,10,17,17.70
2016,08,18,10,18,17.70
2016,08,18,10,19,11.30
2016,08,18,10,20,11.30
2016,08,18,10,21,9.60
2016,08,18,10,22,9.60
2016,08,18,10,23,12.90
2016,08,18,10,24,14.50
2016,08,18,10,25,9.60
2016,08,18,10,26,11.30
2016,08,18,10,27,8.10
2016,08,18,10,28,11.30
2016,08,18,10,29,12.90
2016,08,18,10,30,14.50
2016,08,18,10,31,11.30
2016,08,18,10,32,11.30
2016,08,18,10,33,16.10
2016,08,18,10,34,17.70
2016,08,18,10,35,12.90
2016,08,18,10,36,11.30
2016,08,18,10,37,11.30
2016,08,18,10,38,14.50
2016,08,18,10,39,12.90
2016,08,18,10,40,14.50
2016,08,18,10,41,17.70
2016,08,18,10,42,12.90
2016,08,18,10,43,9.60
2016,08,18,10,44,14.50
2016,08,18,10,45,17.70
2016,08,18,10,46,16.10
2016,08,18,10,47,14.50
2016,08,18,10,48,14.50
2016,08,18,10,49,16.10
2016,08,18,10,50,14.50
2016,08,18,10,51,14.50
2016,08,18,10,52,9.60
2016,08,18,10,53,14.50
2016,08,18,10,54,14.50
2016,08,18,10,55,14.50
2016,08,18,10,56,19.30
2016,08,18,10,57,20.90
2016,08,18,10,58,11.30
2016,08,18,10,59,11.30
2016,08,18,11,00,16.10
2016,08,18,11,01,16.10
2016,08,18,11,02,14.50
2016,08,18,11,03,14.50
2016,08,18,11,04,9.60
2016,08,18,11,05,9.60
2016,08,18,11,06,8.10
2016,08,18,11,07,14.50
2016,08,18,11,08,12.90
2016,08,18,11,09,16.10
2016,08,18,11,10,14.50
2016,08,18,11,11,11.30
2016,08,18,11,12,9.60
2016,08,18,11,13,9.60
2016,08,18,11,14,9.60
2016,08,18,11,15,11.30
2016,08,18,11,16,16.10
2016,08,18,11,17,12.90
2016,08,18,11,18,9.60
2016,08,18,11,19,14.50
2016,08,18,11,20,14.50
2016,08,18,11,21,9.60
2016,08,18,11,22,14.50
2016,08,18,11,23,16.10
2016,08,18,11,24,16.10
2016,08,18,11,25,9.60
2016,08,18,11,26,16.10
2016,08,18,11,27,14.50
2016,08,18,11,28,11.30
2016,08,18,11,29,11.30
2016,08,18,11,30,16.10
2016,08,18,11,31,11.30
2016,08,18,11,32,11.30
2016,08,18,11,33,6.40
2016,08,18,11,34,16.10
2016,08,18,11,35,9.60
2016,08,18,11,36,8.10
2016,08,18,11,37,16.10
2016,08,18,11,38,12.90
2016,08,18,11,39,12.90
2016,08,18,11,40,16.10
2016,08,18,11,41,9.60
2016,08,18,11,42,9.60
2016,08,18,11,43,9.60
2016,08,18,11,44,14.50
2016,08,18,11,45,8.10
2016,08,18,11,46,9.60
2016,08,18,11,47,8.10
2016,08,18,11,48,11.30
2016,08,18,11,49,11.30
2016,08,18,11,50,14.50
2016,08,18,11,51,9.60
2016,08,18,11,52,9.60
2016,08,18,11,53,14.50
2016,08,18,11,54,11.30
2016,08,18,11,55,9.60
2016,08,18,11,56,11.30
2016,08,18,11,57,8.10
2016,08,18,11,58,9.60
2016,08,18,11,59,9.60
2016,08,18,12,00,11.30
2016,08,18,12,01,14.50
2016,08,18,12,02,12.90
2016,08,18,12,03,9.60
2016,08,18,12,04,9.60
2016,08,18,12,05,11.30
2016,08,18,12,06,9.60
2016,08,18,12,07,11.30
2016,08,18,12,08,11.30
2016,08,18,12,09,11.30
2016,08,18,12,10,11.30
2016,08,18,12,11,16.10
2016,08,18,12,12,14.50
2016,08,18,12,13,14.50
2016,08,18,12,14,16.10
2016,08,18,12,15,11.30
2016,08,18,12,16,17.70
2016,08,18,12,17,17.70
2016,08,18,12,18,19.30
2016,08,18,12,19,16.10
2016,08,18,12,20,11.30
2016,08,18,12,21,17.70
2016,08,18,12,22,16.10
2016,08,18,12,23,12.90
2016,08,18,12,24,14.50
2016,08,18,12,25,14.50
2016,08,18,12,26,11.30
2016,08,18,12,27,12.90
2016,08,18,12,28,14.50
2016,08,18,12,29,14.50
2016,08,18,12,30,16.10
2016,08,18,12,31,16.10
2016,08,18,12,32,17.70
2016,08,18,12,33,16.10
2016,08,18,12,34,19.30
2016,08,18,12,35,16.10
2016,08,18,12,36,14.50
2016,08,18,12,37,11.30
2016,08,18,12,38,16.10
2016,08,18,12,39,11.30
2016,08,18,12,40,12.90
2016,08,18,12,41,11.30
2016,08,18,12,42,12.90
2016,08,18,12,43,16.10
2016,08,18,12,44,14.50
2016,08,18,12,45,11.30
2016,08,18,12,46,9.60
2016,08,18,12,47,4.80
2016,08,18,12,48,9.60
2016,08,18,12,49,9.60
2016,08,18,12,50,9.60
2016,08,18,12,51,16.10
2016,08,18,12,52,17.70
2016,08,18,12,53,20.90
2016,08,18,12,54,14.50
2016,08,18,12,55,9.60
2016,08,18,12,56,14.50
2016,08,18,12,57,14.50
2016,08,18,12,58,16.10
2016,08,18,12,59,19.30
2016,08,18,13,00,14.50
2016,08,18,13,01,8.10
2016,08,18,13,02,11.30
2016,08,18,13,03,9.60
2016,08,18,13,04,11.30
2016,08,18,13,05,11.30
2016,08,18,13,06,3.20
2016,08,18,13,07,8.10
2016,08,18,13,08,11.30
2016,08,18,13,09,14.50
2016,08,18,13,10,11.30
2016,08,18,13,11,11.30
2016,08,18,13,12,11.30
2016,08,18,13,13,17.70
2016,08,18,13,14,16.10
2016,08,18,13,15,9.60
2016,08,18,13,16,17.70
2016,08,18,13,17,9.60
2016,08,18,13,18,17.70
2016,08,18,13,19,14.50
2016,08,18,13,20,17.70
2016,08,18,13,21,17.70
2016,08,18,13,22,19.30
2016,08,18,13,23,17.70
2016,08,18,13,24,19.30
2016,08,18,13,25,20.90
2016,08,18,13,26,16.10
2016,08,18,13,27,17.70
2016,08,18,13,28,16.10
2016,08,18,13,29,11.30
2016,08,18,13,30,8.10
2016,08,18,13,31,17.70
2016,08,18,13,32,11.30
2016,08,18,13,33,14.50
2016,08,18,13,34,17.70
2016,08,18,13,35,14.50
2016,08,18,13,36,9.60
2016,08,18,13,37,16.10
2016,08,18,13,38,14.50
2016,08,18,13,39,19.30
2016,08,18,13,40,16.10
2016,08,18,13,41,8.10
2016,08,18,13,42,9.60
2016,08,18,13,43,16.10
2016,08,18,13,44,11.30
2016,08,18,13,45,11.30
2016,08,18,13,46,16.10
2016,08,18,13,47,17.70
2016,08,18,13,48,17.70
2016,08,18,13,49,8.10
2016,08,18,13,50,9.60
2016,08,18,13,51,14.50
2016,08,18,13,52,17.70
2016,08,18,13,53,19.30
2016,08,18,13,54,17.70
2016,08,18,13,55,17.70
2016,08,18,13,56,16.10
2016,08,18,13,57,14.50
2016,08,18,13,58,11.30
2016,08,18,13,59,16.10
2016,08,18,14,00,16.10
2016,08,18,14,01,19.30
2016,08,18,14,02,11.30
2016,08,18,14,03,11.30
2016,08,18,14,04,4.80
2016,08,18,14,05,8.10
2016,08,18,14,06,11.30
2016,08,18,14,07,14.50
2016,08,18,14,08,14.50
2016,08,18,14,09,17.70
2016,08,18,14,10,12.90
2016,08,18,14,11,11.30
2016,08,18,14,12,17.70
2016,08,18,14,13,11.30
2016,08,18,14,14,11.30
2016,08,18,14,15,11.30
2016,08,18,14,16,9.60
2016,08,18,14,17,17.70
2016,08,18,14,18,11.30
2016,08,18,14,19,14.50
2016,08,18,14,20,16.10
2016,08,18,14,21,11.30
2016,08,18,14,22,16.10
2016,08,18,14,23,19.30
2016,08,18,14,24,16.10
2016,08,18,14,25,16.10
2016,08,18,14,26,20.90
2016,08,18,14,27,24.20
2016,08,18,14,28,16.10
2016,08,18,14,29,8.10
2016,08,18,14,30,8.10
2016,08,18,14,31,17.70
2016,08,18,14,32,16.10
2016,08,18,14,33,12.90
2016,08,18,14,34,20.90
2016,08,18,14,35,17.70
2016,08,18,14,36,16.10
2016,08,18,14,37,11.30
2016,08,18,14,38,17.70
2016,08,18,14,39,20.90
2016,08,18,14,40,24.20
2016,08,18,14,41,19.30
2016,08,18,14,42,17.70
2016,08,18,14,43,14.50
2016,08,18,14,44,11.30
2016,08,18,14,45,14.50
2016,08,18,14,46,12.90
2016,08,18,14,47,9.60
2016,08,18,14,48,11.30
2016,08,18,14,49,14.50
2016,08,18,14,50,11.30
2016,08,18,14,51,16.10
2016,08,18,14,52,14.50
2016,08,18,14,53,9.60
2016,08,18,14,54,17.70
2016,08,18,14,55,11.30
2016,08,18,14,56,19.30
2016,08,18,14,57,19.30
2016,08,18,14,58,16.10
2016,08,18,14,59,14.50
2016,08,18,15,00,16.10
2016,08,18,15,01,14.50
2016,08,18,15,02,11.30
2016,08,18,15,03,9.60
2016,08,18,15,04,14.50
2016,08,18,15,05,19.30
2016,08,18,15,06,17.70
2016,08,18,15,07,17.70
2016,08,18,15,08,16.10
2016,08,18,15,09,19.30
2016,08,18,15,10,17.70
2016,08,18,15,11,16.10
2016,08,18,15,12,11.30
2016,08,18,15,13,11.30
2016,08,18,15,14,9.60
2016,08,18,15,15,9.60
2016,08,18,15,16,9.60
2016,08,18,15,17,12.90
2016,08,18,15,18,16.10
2016,08,18,15,19,16.10
2016,08,18,15,20,16.10
2016,08,18,15,21,19.30
2016,08,18,15,22,16.10
2016,08,18,15,23,17.70
2016,08,18,15,24,14.50
2016,08,18,15,25,17.70
2016,08,18,15,26,22.50
2016,08,18,15,27,16.10
2016,08,18,15,28,14.50
2016,08,18,15,29,14.50
2016,08,18,15,30,16.10
2016,08,18,15,31,17.70
2016,08,18,15,32,16.10
2016,08,18,15,33,14.50
2016,08,18,15,34,17.70
2016,08,18,15,35,16.10
2016,08,18,15,36,16.10
2016,08,18,15,37,17.70
2016,08,18,15,38,17.70
2016,08,18,15,39,19.30
2016,08,18,15,40,20.90
2016,08,18,15,41,17.70
2016,08,18,15,42,14.50
2016,08,18,15,43,17.70
2016,08,18,15,44,16.10
2016,08,18,15,45,11.30
2016,08,18,15,46,19.30
2016,08,18,15,47,17.70
2016,08,18,15,48,14.50
2016,08,18,15,49,19.30
2016,08,18,15,50,16.10
2016,08,18,15,51,16.10
2016,08,18,15,52,11.30
2016,08,18,15,53,12.90
2016,08,18,15,54,19.30
2016,08,18,15,55,8.10
2016,08,18,15,56,8.10
2016,08,18,15,57,16.10
2016,08,18,15,58,17.70
2016,08,18,15,59,11.30
2016,08,18,16,00,11.30
2016,08,18,16,01,12.90
2016,08,18,16,02,16.10
2016,08,18,16,03,9.60
2016,08,18,16,04,4.80
2016,08,18,16,05,6.40
2016,08,18,16,06,16.10
2016,08,18,16,07,14.50
2016,08,18,16,08,9.60
2016,08,18,16,09,9.60
2016,08,18,16,10,9.60
2016,08,18,16,11,11.30
2016,08,18,16,12,11.30
2016,08,18,16,13,6.40
2016,08,18,16,14,9.60
2016,08,18,16,15,14.50
2016,08,18,16,16,14.50
2016,08,18,16,17,9.60
2016,08,18,16,18,12.90
2016,08,18,16,19,9.60
2016,08,18,16,20,14.50
2016,08,18,16,21,14.50
2016,08,18,16,22,14.50
2016,08,18,16,23,11.30
2016,08,18,16,24,16.10
2016,08,18,16,25,17.70
2016,08,18,16,26,16.10
2016,08,18,16,27,6.40
2016,08,18,16,28,11.30
2016,08,18,16,29,9.60
2016,08,18,16,30,11.30
2016,08,18,16,31,12.90
2016,08,18,16,32,11.30
2016,08,18,16,33,9.60
2016,08,18,16,34,16.10
2016,08,18,16,35,16.10
2016,08,18,16,36,11.30
2016,08,18,16,37,8.10
2016,08,18,16,38,9.60
2016,08,18,16,39,11.30
2016,08,18,16,40,16.10
2016,08,18,16,41,16.10
2016,08,18,16,42,6.40
2016,08,18,16,43,6.40
2016,08,18,16,44,9.60
2016,08,18,16,45,9.60
2016,08,18,16,46,11.30
2016,08,18,16,47,9.60
2016,08,18,16,48,9.60
2016,08,18,16,49,12.90
2016,08,18,16,50,9.60
2016,08,18,16,51,11.30
2016,08,18,16,52,17.70
2016,08,18,16,53,9.60
2016,08,18,16,54,9.60
2016,08,18,16,55,11.30
2016,08,18,16,56,11.30
2016,08,18,16,57,9.60
2016,08,18,16,58,9.60
2016,08,18,16,59,9.60
2016,08,18,17,00,8.10
2016,08,18,17,01,9.60
2016,08,18,17,02,9.60
2016,08,18,17,03,9.60
2016,08,18,17,04,8.10
2016,08,18,17,05,8.10
2016,08,18,17,06,9.60
2016,08,18,17,07,9.60
2016,08,18,17,08,11.30
2016,08,18,17,09,11.30
2016,08,18,17,10,6.40
2016,08,18,17,11,9.60
2016,08,18,17,12,11.30
2016,08,18,17,13,8.10
2016,08,18,17,14,11.30
2016,08,18,17,15,11.30
2016,08,18,17,16,11.30
2016,08,18,17,17,4.80
2016,08,18,17,18,3.20
2016,08,18,17,19,3.20
2016,08,18,17,20,8.10
2016,08,18,17,21,9.60
2016,08,18,17,22,6.40
2016,08,18,17,23,9.60
2016,08,18,17,24,9.60
2016,08,18,17,25,4.80
2016,08,18,17,26,4.80
2016,08,18,17,27,4.80
2016,08,18,17,28,6.40
2016,08,18,17,29,4.80
2016,08,18,17,30,11.30
2016,08,18,17,31,11.30
2016,08,18,17,32,16.10
2016,08,18,17,33,14.50
2016,08,18,17,34,11.30
2016,08,18,17,35,12.90
2016,08,18,17,36,9.60
2016,08,18,17,37,8.10
2016,08,18,17,38,9.60
2016,08,18,17,39,8.10
2016,08,18,17,40,1.60
2016,08,18,17,41,8.10
2016,08,18,17,42,11.30
2016,08,18,17,43,14.50
2016,08,18,17,44,11.30
2016,08,18,17,45,14.50
2016,08,18,17,46,14.50
2016,08,18,17,47,14.50
2016,08,18,17,48,14.50
2016,08,18,17,49,14.50
2016,08,18,17,50,12.90
2016,08,18,17,51,11.30
2016,08,18,17,52,11.30
2016,08,18,17,53,11.30
2016,08,18,17,54,11.30
2016,08,18,17,55,11.30
2016,08,18,17,56,12.90
2016,08,18,17,57,6.40
2016,08,18,17,58,11.30
2016,08,18,17,59,8.10
2016,08,18,18,00,11.30
2016,08,18,18,01,9.60
2016,08,18,18,02,12.90
2016,08,18,18,03,14.50
2016,08,18,18,04,16.10
2016,08,18,18,05,16.10
2016,08,18,18,06,16.10
2016,08,18,18,07,14.50
2016,08,18,18,08,11.30
2016,08,18,18,09,17.70
2016,08,18,18,10,11.30
2016,08,18,18,11,19.30
2016,08,18,18,12,16.10
2016,08,18,18,13,19.30
2016,08,18,18,14,20.90
2016,08,18,18,15,11.30
2016,08,18,18,16,19.30
2016,08,18,18,17,17.70
2016,08,18,18,18,16.10
2016,08,18,18,19,16.10
2016,08,18,18,20,19.30
2016,08,18,18,21,16.10
2016,08,18,18,22,16.10
2016,08,18,18,23,11.30
2016,08,18,18,24,20.90
2016,08,18,18,25,19.30
2016,08,18,18,26,17.70
2016,08,18,18,27,19.30
2016,08,18,18,28,16.10
2016,08,18,18,29,11.30
2016,08,18,18,30,8.10
2016,08,18,18,31,16.10
2016,08,18,18,32,11.30
2016,08,18,18,33,19.30
2016,08,18,18,34,17.70
2016,08,18,18,35,14.50
2016,08,18,18,36,14.50
2016,08,18,18,37,11.30
2016,08,18,18,38,9.60
2016,08,18,18,39,11.30
2016,08,18,18,40,8.10
2016,08,18,18,41,9.60
2016,08,18,18,42,11.30
2016,08,18,18,43,11.30
2016,08,18,18,44,12.90
2016,08,18,18,45,9.60
2016,08,18,18,46,9.60
2016,08,18,18,47,11.30
2016,08,18,18,48,16.10
2016,08,18,18,49,11.30
2016,08,18,18,50,17.70
2016,08,18,18,51,14.50
2016,08,18,18,52,11.30
2016,08,18,18,53,11.30
2016,08,18,18,54,9.60
2016,08,18,18,55,9.60
2016,08,18,18,56,8.10
2016,08,18,18,57,6.40
2016,08,18,18,58,8.10
2016,08,18,18,59,8.10
2016,08,18,19,00,8.10
2016,08,18,19,01,6.40
2016,08,18,19,02,9.60
2016,08,18,19,03,6.40
2016,08,18,19,04,6.40
2016,08,18,19,05,8.10
2016,08,18,19,06,8.10
2016,08,18,19,07,8.10
2016,08,18,19,08,6.40
2016,08,18,19,09,8.10
2016,08,18,19,10,6.40
2016,08,18,19,11,9.60
2016,08,18,19,12,9.60
2016,08,18,19,13,9.60
2016,08,18,19,14,4.80
2016,08,18,19,15,11.30
2016,08,18,19,16,11.30
2016,08,18,19,17,8.10
2016,08,18,19,18,14.50
2016,08,18,19,19,11.30
2016,08,18,19,20,9.60
2016,08,18,19,21,11.30
2016,08,18,19,22,8.10
2016,08,18,19,23,4.80
2016,08,18,19,24,4.80
2016,08,18,19,25,4.80
2016,08,18,19,26,1.60
2016,08,18,19,27,3.20
2016,08,18,19,28,3.20
2016,08,18,19,29,3.20
2016,08,18,19,30,6.40
2016,08,18,19,31,3.20
2016,08,18,19,32,3.20
2016,08,18,19,33,6.40
2016,08,18,19,34,6.40
2016,08,18,19,35,6.40
2016,08,18,19,36,1.60
2016,08,18,19,37,6.40
2016,08,18,19,38,4.80
2016,08,18,19,39,6.40
2016,08,18,19,40,6.40
2016,08,18,19,41,1.60
2016,08,18,19,43,3.20
2016,08,18,19,44,1.60
2016,08,18,19,45,3.20
2016,08,18,19,46,4.80
2016,08,18,19,47,1.60
2016,08,18,19,48,1.60
2016,08,18,19,49,1.60
2016,08,18,19,50,1.60
2016,08,18,19,51,1.60
2016,08,18,19,53,1.60
2016,08,18,19,54,1.60
2016,08,18,19,56,1.60
2016,08,18,20,01,1.60
2016,08,18,20,02,1.60
2016,08,18,20,10,1.60
2016,08,18,20,14,1.60
2016,08,18,20,15,1.60
2016,08,18,20,16,1.60
2016,08,18,20,48,1.60
2016,08,18,20,49,1.60
2016,08,18,20,50,1.60
2016,08,18,20,56,1.60
2016,08,18,20,57,1.60
2016,08,18,20,59,1.60
2016,08,18,21,11,1.60
2016,08,18,21,23,1.60
2016,08,18,21,24,1.60
2016,08,18,21,26,1.60
2016,08,18,21,28,1.60
2016,08,18,21,34,1.60
2016,08,18,21,37,1.60
2016,08,18,21,43,1.60
2016,08,18,21,44,1.60
2016,08,18,21,49,1.60
2016,08,18,21,52,1.60
2016,08,18,21,55,1.60
2016,08,18,22,00,1.60
2016,08,18,22,02,6.40
2016,08,18,22,03,4.80
2016,08,18,22,04,1.60
2016,08,18,22,05,1.60
2016,08,18,22,06,3.20
2016,08,18,22,07,1.60
2016,08,18,22,09,1.60
2016,08,18,22,10,4.80
2016,08,18,22,11,3.20
2016,08,18,22,12,1.60
2016,08,18,22,13,3.20
2016,08,18,22,14,3.20
2016,08,18,22,15,1.60
2016,08,18,22,17,1.60
2016,08,18,22,22,1.60
2016,08,18,22,25,1.60
2016,08,18,22,33,1.60
2016,08,18,22,41,1.60
2016,08,18,22,42,1.60
2016,08,18,22,46,1.60
2016,08,18,22,51,1.60
2016,08,18,22,52,3.20
2016,08,18,22,53,3.20
2016,08,18,22,54,3.20
2016,08,18,22,55,1.60
2016,08,18,22,56,1.60
2016,08,18,22,57,3.20
2016,08,18,22,58,3.20
2016,08,18,22,59,1.60
2016,08,18,23,00,3.20
2016,08,18,23,01,1.60
2016,08,18,23,02,3.20
2016,08,18,23,03,4.80
2016,08,18,23,04,1.60
2016,08,18,23,05,1.60
2016,08,18,23,06,1.60
2016,08,18,23,36,1.60
2016,08,18,23,41,1.60
2016,08,18,23,43,4.80
2016,08,18,23,44,1.60
2016,08,18,23,51,1.60
2016,08,18,23,52,1.60
2016,08,18,23,58,1.60
2016,08,18,23,59,1.60
